Regional Weather Roundup
Issued by NWS Sioux Falls, SD

Home | Current Version | Previous Version | Text Only | Print | Product List | Glossary Off
Versions: 1 2 3 4 5 6 7 8 9 10 11 12 13 14 15 16 17 18 19 20 21 22 23 24 25 26 27 28 29 30 31 32 33 34 35 36 37 38 39 40 41 42 43 44 45 46 47 48 49 50

000
ASUS43 KFSD 181510
RWRFSD

WEATHER ROUNDUP FOR SE SOUTH DAKOTA/SW MINNESOTA/NW IOWA
NATIONAL WEATHER SERVICE SIOUX FALLS SD
900 AM CST WED JAN 18 2017

NOTE: "FAIR" INDICATES FEW OR NO CLOUDS BELOW 12,000 FEET WITH NO
SIGNIFICANT WEATHER AND OR OBSTRUCTIONS TO VISIBILITY.


SDZ038>040-050-052>070-181600-
SOUTHEAST SOUTH DAKOTA

CITY           SKY/WX    TMP DP  RH WIND       PRES   REMARKS
BROOKINGS      FAIR      22  21  96 SE6       29.85F WCI  14
CHAMBERLAIN    CLEAR     20  17  91 CALM      29.83F
HURON          CLEAR     18  16  92 SE7       29.85S WCI   9
MADISON          N/A     19  19 100 S8          N/A  WCI   9
MITCHELL       CLEAR     20  18  92 E3        29.87F
SIOUX FALLS    FAIR      24  22  91 NW3       29.90R
WINNER         FAIR      29  19  66 SW5       29.82F WCI  24
YANKTON        FAIR      28  25  86 NE3       29.89S
$$

MNZ071-072-080-081-089-090-097-098-181600-
SOUTHWEST MINNESOTA

CITY           SKY/WX    TMP DP  RH WIND       PRES   REMARKS
FAIRMONT       FAIR      31  28  89 S15       29.93F WCI  20
JACKSON        FAIR      30  27  86 SW10      29.90F WCI  21
LUVERNE        FAIR      23  21  93 S5        29.90F WCI  17
MARSHALL       FAIR      32  25  75 SW13      29.85F WCI  22
MONTEVIDEO     FAIR      30  28  93 CALM      29.86R
PIPESTONE      FAIR      25  23  93 SW7       29.88R WCI  17
REDWOOD FALLS  FAIR      26  22  84 S9        29.87S WCI  17
TRACY          FAIR      32  28  83 W7        29.86R WCI  26
WINDOM         FAIR      30  27  86 SW10      29.89R WCI  21
WORTHINGTON    FAIR      30  27  88 SW20      29.88F WCI  17
$$

IAZ001>003-012>014-020>022-031-032-NEZ013-014-SDZ071-181600-
NORTHWEST IOWA

CITY           SKY/WX    TMP DP  RH WIND       PRES   REMARKS
CHEROKEE       FAIR      29  29 100 S3        29.95F
DENISON        FAIR      32  28  86 S7G13     29.99S WCI  26
ESTHERVILLE    FAIR      26  26 100 S10       29.92F WCI  16
LE MARS        FAIR      30  28  93 S7        29.94F WCI  23
ORANGE CITY    FAIR      28  28 100 S7        29.92S WCI  21
SHELDON        FAIR      30  30 100 S8        29.91S WCI  23
SIOUX CITY     FAIR      29  26  89 SE8       29.95F WCI  21
SPENCER        FAIR      30  28  92 S10       29.93F WCI  21
STORM LAKE     FAIR      30  28  93 S9        29.96F WCI  22
$$

ABBREVIATIONS USED IN REMARKS
   TC - TEMPERATURE IN CELSIUS
  WCI - WIND CHILL INDEX
   HX - HEAT INDEX
  VSB - VISIBILITY





USA.gov is the U.S. government's official web portal to all federal, state and local government web resources and services.